When you browse on this site, cookies collect data to enhance your experience and personalize the content and advertising you see.
Visit our Privacy Policy to learn more. By continuing to use the site, you agree to this use of cookies and data.
  • In Czech Republic
  • List of Countries
  • For 7 days
  • Water Temperature
  • Satellite Maps
  • Weather Map
  • Weather Widgets
  • user-avatar
    Login

    Hourly Weather Sysova

    Today, 19 February, Tuesday

    Time Temperature Precipitation Wind Pressure Humidity
    00:00 -4°C° 0 mm 4 mps 755 mmHg 71%
    01:00 -4°C° 0 mm 4 mps 755 mmHg 70%
    02:00 -4°C° 0 mm 4 mps 754 mmHg 77%
    03:00 -4°C° 0 mm 4 mps 753 mmHg 80%
    04:00 -4°C° 0 mm 5 mps 753 mmHg 83%
    05:00 -4°C° 0 mm 5 mps 752 mmHg 86%
    06:00 -4°C° 0 mm 5 mps 752 mmHg 87%
    07:00 -2°C° 0 mm 5 mps 751 mmHg 88%
    08:00 -2°C° 0 mm 5 mps 751 mmHg 88%
    09:00 -2°C° 0 mm 5 mps 750 mmHg 88%
    10:00 -1°C° 0 mm 5 mps 750 mmHg 87%
    11:00 0°C° 0 mm 5 mps 749 mmHg 87%
    12:00 0°C° 0 mm 5 mps 749 mmHg 86%
    13:00 +1°C° 0 mm 4 mps 748 mmHg 86%
    14:00 +3°C° 0 mm 4 mps 747 mmHg 85%
    15:00 +1°C° 0 mm 4 mps 746 mmHg 86%
    16:00 +1°C° 0 mm 4 mps 746 mmHg 87%
    17:00 +1°C° 0 mm 4 mps 745 mmHg 89%
    18:00 +1°C° 0 mm 5 mps 744 mmHg 89%
    19:00 +1°C° 0 mm 5 mps 743 mmHg 90%
    20:00 +1°C° 0 mm 5 mps 743 mmHg 90%
    21:00 +1°C° 0 mm 5 mps 742 mmHg 90%
    22:00 +1°C° 0 mm 5 mps 742 mmHg 91%
    23:00 +1°C° 0 mm 4 mps 741 mmHg 91%

    Tomorrow, 20 February, Wednesday

    Time Temperature Precipitation Wind Pressure Humidity
    00:00 +1°C° 0.2 mm 4 mps 741 mmHg 91%
    01:00 +1°C° 0.2 mm 5 mps 741 mmHg 91%
    02:00 +1°C° 0.2 mm 5 mps 740 mmHg 91%
    03:00 +1°C° 0 mm 5 mps 740 mmHg 91%
    04:00 +1°C° 0 mm 5 mps 740 mmHg 90%
    05:00 +1°C° 0 mm 5 mps 740 mmHg 90%
    06:00 +1°C° 0.2 mm 5 mps 740 mmHg 90%
    07:00 0°C° 0.2 mm 5 mps 739 mmHg 90%
    08:00 0°C° 0.2 mm 5 mps 739 mmHg 89%
    09:00 +1°C° 0.1 mm 5 mps 739 mmHg 88%
    10:00 +1°C° 0.1 mm 5 mps 739 mmHg 87%
    11:00 +1°C° 0.1 mm 5 mps 738 mmHg 86%
    12:00 +1°C° 0.2 mm 5 mps 738 mmHg 86%
    13:00 +1°C° 0.2 mm 5 mps 738 mmHg 85%
    14:00 +1°C° 0.2 mm 5 mps 738 mmHg 85%
    15:00 +1°C° 0.4 mm 5 mps 738 mmHg 82%
    16:00 -1°C° 0.4 mm 6 mps 738 mmHg 80%
    17:00 -2°C° 0.4 mm 6 mps 738 mmHg 77%
    18:00 -3°C° 0.1 mm 6 mps 739 mmHg 79%
    19:00 -3°C° 0.1 mm 6 mps 740 mmHg 81%
    20:00 -4°C° 0.1 mm 6 mps 740 mmHg 83%
    21:00 -5°C° 0.1 mm 6 mps 741 mmHg 81%
    22:00 -5°C° 0.1 mm 6 mps 741 mmHg 78%
    23:00 -6°C° 0.1 mm 6 mps 742 mmHg 76%

    Day after tomorrow, 21 February, Thursday

    Time Temperature Precipitation Wind Pressure Humidity
    00:00 -7°C° 0.1 mm 7 mps 743 mmHg 75%
    01:00 -7°C° 0.1 mm 7 mps 743 mmHg 74%
    02:00 -7°C° 0.1 mm 7 mps 744 mmHg 73%
    03:00 -8°C° 0.1 mm 7 mps 744 mmHg 72%
    04:00 -8°C° 0.1 mm 7 mps 745 mmHg 72%
    05:00 -8°C° 0.1 mm 7 mps 746 mmHg 72%
    06:00 -8°C° 0 mm 7 mps 747 mmHg 71%
    07:00 -9°C° 0 mm 7 mps 748 mmHg 71%
    08:00 -9°C° 0 mm 6 mps 748 mmHg 70%
    09:00 -9°C° 0 mm 6 mps 749 mmHg 69%
    10:00 -9°C° 0 mm 6 mps 750 mmHg 68%
    11:00 -9°C° 0 mm 6 mps 751 mmHg 66%
    12:00 -9°C° 0 mm 6 mps 751 mmHg 65%
    13:00 -9°C° 0 mm 6 mps 752 mmHg 64%
    14:00 -7°C° 0 mm 5 mps 752 mmHg 63%
    15:00 -8°C° 0 mm 5 mps 753 mmHg 64%
    16:00 -8°C° 0 mm 5 mps 754 mmHg 65%
    17:00 -10°C° 0 mm 5 mps 754 mmHg 66%
    18:00 -10°C° 0 mm 5 mps 755 mmHg 67%
    19:00 -11°C° 0 mm 5 mps 756 mmHg 67%
    20:00 -11°C° 0 mm 5 mps 757 mmHg 68%
    21:00 -11°C° 0 mm 5 mps 757 mmHg 69%
    22:00 -11°C° 0 mm 4 mps 758 mmHg 69%
    23:00 -11°C° 0 mm 4 mps 759 mmHg 70%

    22 February, Friday

    Time Temperature Precipitation Wind Pressure Humidity
    00:00 -11°C° 0 mm 4 mps 759 mmHg 71%
    01:00 -11°C° 0 mm 4 mps 760 mmHg 72%
    02:00 -11°C° 0 mm 4 mps 761 mmHg 73%
    03:00 -11°C° 0 mm 4 mps 761 mmHg 74%
    04:00 -12°C° 0 mm 4 mps 761 mmHg 75%
    05:00 -12°C° 0 mm 4 mps 762 mmHg 76%
    06:00 -12°C° 0 mm 4 mps 762 mmHg 76%
    07:00 -12°C° 0 mm 4 mps 763 mmHg 75%
    08:00 -12°C° 0 mm 4 mps 764 mmHg 75%
    09:00 -11°C° 0 mm 4 mps 764 mmHg 70%
    10:00 -11°C° 0 mm 5 mps 764 mmHg 65%
    11:00 -11°C° 0 mm 5 mps 764 mmHg 60%
    12:00 -10°C° 0 mm 5 mps 764 mmHg 58%
    13:00 -10°C° 0 mm 5 mps 765 mmHg 56%
    14:00 -9°C° 0 mm 6 mps 765 mmHg 55%
    15:00 -10°C° 0 mm 5 mps 765 mmHg 57%
    16:00 -9°C° 0 mm 4 mps 765 mmHg 59%
    17:00 -9°C° 0 mm 4 mps 765 mmHg 62%
    18:00 -10°C° 0 mm 4 mps 766 mmHg 65%
    19:00 -10°C° 0 mm 4 mps 766 mmHg 69%
    20:00 -11°C° 0 mm 4 mps 767 mmHg 73%
    21:00 -11°C° 0 mm 4 mps 767 mmHg 76%
    22:00 -11°C° 0 mm 4 mps 767 mmHg 79%
    23:00 -12°C° 0 mm 3 mps 768 mmHg 81%

    23 February, Saturday

    Time Temperature Precipitation Wind Pressure Humidity
    00:00 -12°C° 0 mm 3 mps 768 mmHg 83%
    01:00 -12°C° 0 mm 3 mps 768 mmHg 85%
    02:00 -10°C° 0 mm 2 mps 768 mmHg 87%
    03:00 -12°C° 0 mm 2 mps 768 mmHg 89%
    04:00 -12°C° 0 mm 2 mps 768 mmHg 90%
    05:00 -12°C° 0 mm 2 mps 768 mmHg 92%
    06:00 -12°C° 0 mm 2 mps 768 mmHg 92%
    07:00 -10°C° 0 mm 1 mps 768 mmHg 92%
    08:00 -10°C° 0 mm 1 mps 768 mmHg 92%
    09:00 -9°C° 0 mm 1 mps 768 mmHg 85%
    10:00 -8°C° 0 mm 1 mps 768 mmHg 78%
    11:00 -7°C° 0 mm 1 mps 768 mmHg 71%
    12:00 -6°C° 0 mm 1 mps 767 mmHg 68%
    13:00 -4°C° 0 mm 1 mps 766 mmHg 66%
    14:00 -6°C° 0 mm 2 mps 766 mmHg 64%
    15:00 -6°C° 0 mm 2 mps 765 mmHg 64%
    16:00 -6°C° 0 mm 2 mps 765 mmHg 65%
    17:00 -6°C° 0 mm 2 mps 764 mmHg 66%
    18:00 -6°C° 0.3 mm 2 mps 764 mmHg 74%
    19:00 -7°C° 0.3 mm 2 mps 764 mmHg 82%
    20:00 -8°C° 0.3 mm 3 mps 763 mmHg 91%
    21:00 -7°C° 0.2 mm 2 mps 763 mmHg 91%
    22:00 -6°C° 0.2 mm 2 mps 763 mmHg 91%
    23:00 -6°C° 0.2 mm 2 mps 763 mmHg 92%

    24 February, Sunday

    Time Temperature Precipitation Wind Pressure Humidity
    00:00 -4°C° 0 mm 1 mps 763 mmHg 93%
    01:00 -4°C° 0 mm 1 mps 763 mmHg 94%
    02:00 -4°C° 0 mm 1 mps 764 mmHg 95%
    03:00 -4°C° 0 mm 1 mps 764 mmHg 95%
    04:00 -4°C° 0 mm 1 mps 764 mmHg 95%
    05:00 -4°C° 0 mm 1 mps 764 mmHg 95%
    06:00 -3°C° 0 mm 1 mps 765 mmHg 95%
    07:00 -3°C° 0 mm 1 mps 765 mmHg 95%
    08:00 -3°C° 0 mm 1 mps 766 mmHg 95%
    09:00 -2°C° 0 mm 1 mps 766 mmHg 92%
    10:00 -1°C° 0 mm 1 mps 766 mmHg 89%
    11:00 0°C° 0 mm 1 mps 767 mmHg 86%
    12:00 0°C° 0 mm 1 mps 767 mmHg 85%
    13:00 0°C° 0 mm 1 mps 767 mmHg 84%
    14:00 +1°C° 0 mm 1 mps 767 mmHg 82%
    15:00 0°C° 0 mm 1 mps 767 mmHg 85%
    16:00 0°C° 0 mm 1 mps 767 mmHg 88%
    17:00 -1°C° 0 mm 1 mps 767 mmHg 92%
    18:00 -1°C° 0 mm 1 mps 767 mmHg 93%
    19:00 -2°C° 0 mm 1 mps 766 mmHg 94%
    20:00 -2°C° 0 mm 1 mps 766 mmHg 95%
    21:00 -4°C° 0 mm 2 mps 766 mmHg 95%
    22:00 -4°C° 0 mm 2 mps 766 mmHg 95%
    23:00 -4°C° 0 mm 2 mps 765 mmHg 95%
    Show more